IK8WEQ Weather Reports


time (UTC)temp
F
wind
direction
speed
knots
gust
knots
rain 1hr
in
rain 24hr
in
rain mn
in
humidity
%
barometer
mb
20260906080709 86 234 1.7 0.0 0.00 0.00 0.00 100 1021.0
20260906080203 86 171 0.0 0.0 0.00 0.00 0.00 100 1021.0
20260906075719 86 113 0.0 0.0 0.00 0.00 0.00 100 1020.8
20260906075234 85 37 0.0 0.0 0.00 0.00 0.00 100 1020.8
20260906074726 85 44 0.0 0.0 0.00 0.00 0.00 100 1020.9
20260906074205 84 53 0.0 0.0 0.00 0.00 0.00 100 1020.8
20260906073715 84 47 0.0 0.0 0.00 0.00 0.00 100 1020.7
20260906073210 84 51 0.0 0.0 0.00 0.00 0.00 100 1020.7
20260906072722 84 51 0.9 0.0 0.00 0.00 0.00 100 1020.8
20260906072214 84 53 0.0 0.0 0.00 0.00 0.00 100 1020.6
20260906071703 84 56 0.0 0.0 0.00 0.00 0.00 100 1020.6
20260906071218 84 58 0.0 0.0 0.00 0.00 0.00 100 1020.6
20260906070713 83 59 0.0 0.0 0.00 0.00 0.00 100 1020.6
20260906070244 83 54 0.0 0.0 0.00 0.00 0.00 100 1020.5
20260906065719 82 63 0.0 0.0 0.00 0.00 0.00 100 1020.6
20260906065255 81 62 0.0 0.0 0.00 0.00 0.00 100 1020.5
20260906065212 81 62 0.0 0.0 0.00 0.00 0.00 100 1020.5
20260906064746 81 64 0.0 0.0 0.00 0.00 0.00 100 1020.5
20260906064256 80 68 0.0 0.0 0.00 0.00 0.00 100 1020.5
20260906063742 80 64 0.0 0.0 0.00 0.00 0.00 100 1020.5
20260906063215 80 67 0.9 0.0 0.00 0.00 0.00 7 1020.4
20260906062727 79 59 0.0 0.0 0.00 0.00 0.00 27 1020.4
20260906062214 79 62 0.0 0.0 0.00 0.00 0.00 51 1020.5
20260906061704 78 51 0.0 0.0 0.00 0.00 0.00 68 1020.4
20260906061220 78 46 0.0 0.0 0.00 0.00 0.00 100 1020.3
20260906060729 77 44 0.0 0.0 0.00 0.00 0.00 100 1020.3
20260906060219 77 44 0.9 0.0 0.00 0.00 0.00 100 1020.2
20260906055733 77 56 1.7 0.0 0.00 0.00 0.00 100 1020.2
20260906055211 76 146 0.0 0.0 0.00 0.00 0.00 100 1020.1
20260906054722 75 156 0.0 0.0 0.00 0.00 0.00 21 1020.0
20260906054210 75 165 0.0 0.0 0.00 0.00 0.00 57 1019.8
20260906053706 75 158 0.0 0.0 0.00 0.00 0.00 100 1019.8
20260906053216 74 157 0.0 0.0 0.00 0.00 0.00 100 1019.8
20260906052728 74 149 0.0 0.0 0.00 0.00 0.00 100 1019.8
20260906052203 73 155 0.9 0.0 0.00 0.00 0.00 100 1019.8
20260906051721 73 163 1.7 0.0 0.00 0.00 0.00 100 1019.7
20260906051219 73 168 2.6 0.0 0.00 0.00 0.00 100 1019.7
20260906050712 74 162 0.0 0.0 0.00 0.00 0.00 100 1019.8
20260906050211 74 167 1.7 0.0 0.00 0.00 0.00 100 1019.8
20260906045712 74 169 0.9 0.0 0.00 0.00 0.00 100 1019.7
20260906045229 74 174 1.7 0.0 0.00 0.00 0.00 100 1019.7
20260906044723 74 185 1.7 0.0 0.00 0.00 0.00 100 1019.7
20260906044211 74 178 0.0 0.0 0.00 0.00 0.00 100 1019.7
20260906043723 74 175 0.0 0.0 0.00 0.00 0.00 100 1019.7
20260906043217 74 176 0.0 0.0 0.00 0.00 0.00 100 1019.6
20260906042716 74 171 0.0 0.0 0.00 0.00 0.00 100 1019.4
20260906042202 74 170 0.0 0.0 0.00 0.00 0.00 100 1019.6
20260906041733 74 182 0.0 0.0 0.00 0.00 0.00 100 1019.6
20260906041217 74 174 0.0 0.0 0.00 0.00 0.00 100 1019.6
20260906040706 74 166 0.0 0.0 0.00 0.00 0.00 100 1019.6
20260906040216 74 185 0.0 0.0 0.00 0.00 0.00 100 1019.6
20260906035732 74 174 0.0 0.0 0.00 0.00 0.00 100 1019.5
20260906035210 74 176 1.7 0.0 0.00 0.00 0.00 100 1019.5
20260906034722 73 167 0.9 0.0 0.00 0.00 0.00 100 1019.5
20260906034213 74 165 0.0 0.0 0.00 0.00 0.00 100 1019.3
20260906033711 73 159 0.0 0.0 0.00 0.00 0.00 100 1019.3
20260906033228 74 160 0.0 0.0 0.00 0.00 0.00 100 1019.4
20260906032703 74 162 0.0 0.0 0.00 0.00 0.00 100 1019.4
20260906032227 74 162 0.0 0.0 0.00 0.00 0.00 100 1019.3
20260906031703 74 175 0.0 0.0 0.00 0.00 0.00 100 1019.3
20260906031202 74 163 0.0 0.0 0.00 0.00 0.00 100 1019.4
20260906030718 74 163 0.0 0.0 0.00 0.00 0.00 100 1019.3
20260906030216 75 167 2.6 0.0 0.00 0.00 0.00 100 1019.5
20260906025714 75 168 0.0 0.0 0.00 0.00 0.00 100 1019.5
20260906025212 75 167 0.0 0.0 0.00 0.00 0.00 100 1019.5
20260906024723 75 166 0.9 0.0 0.00 0.00 0.00 100 1019.5
20260906024213 75 150 0.0 0.0 0.00 0.00 0.00 100 1019.5
20260906023711 75 147 0.0 0.0 0.00 0.00 0.00 100 1019.6
20260906023209 75 147 0.0 0.0 0.00 0.00 0.00 100 1019.5
20260906022709 75 148 1.7 0.0 0.00 0.00 0.00 100 1019.6
20260906022201 75 149 0.0 0.0 0.00 0.00 0.00 100 1019.7
20260906021703 75 150 1.7 0.0 0.00 0.00 0.00 100 1019.8
20260906021202 75 159 1.7 0.0 0.00 0.00 0.00 100 1019.6
20260906020803 75 158 1.7 0.0 0.00 0.00 0.00 87 1019.6
20260906020234 75 147 2.6 0.0 0.00 0.00 0.00 81 1019.5
20260906015710 76 165 0.9 0.0 0.00 0.00 0.00 71 1019.5
20260906015207 76 166 1.7 0.0 0.00 0.00 0.00 74 1019.5
20260906014725 76 163 2.6 0.0 0.00 0.00 0.00 74 1019.6
20260906014213 76 170 1.7 0.0 0.00 0.00 0.00 70 1019.5
20260906013709 76 159 0.0 0.0 0.00 0.00 0.00 61 1019.6
20260906013206 76 153 0.0 0.0 0.00 0.00 0.00 46 1019.6
20260906012725 76 151 0.9 0.0 0.00 0.00 0.00 20 1019.6
20260906012216 76 171 1.7 0.0 0.00 0.00 0.00 100 1019.7
20260906011729 76 165 0.0 0.0 0.00 0.00 0.00 100 1019.6
20260906011212 76 150 0.0 0.0 0.00 0.00 0.00 100 1019.5
20260906010742 76 146 0.0 0.0 0.00 0.00 0.00 100 1019.5
20260906010234 77 154 0.0 0.0 0.00 0.00 0.00 100 1019.6
20260906005738 76 143 0.0 0.0 0.00 0.00 0.00 100 1019.6
20260906005208 76 153 1.7 0.0 0.00 0.00 0.00 100 1019.7
20260906004723 76 155 0.9 0.0 0.00 0.00 0.00 97 1019.6
20260906004214 76 142 0.9 0.0 0.00 0.00 0.00 86 1019.6
20260906003710 77 155 1.7 0.0 0.00 0.00 0.00 75 1019.5
20260906003206 77 154 1.7 0.0 0.00 0.00 0.00 72 1019.7
20260906002703 77 153 1.7 0.0 0.00 0.00 0.00 65 1019.5
20260906002221 77 147 1.7 0.0 0.00 0.00 0.00 55 1019.6
20260906001715 77 123 2.6 0.0 0.00 0.00 0.00 44 1019.6
20260906001213 77 110 1.7 0.0 0.00 0.00 0.00 32 1019.6
20260906000729 77 121 1.7 0.0 0.00 0.00 0.00 24 1019.6
20260906000226 77 123 1.7 0.0 0.00 0.00 0.00 22 1019.6
20260905235744 77 109 0.0 0.0 0.00 0.00 0.00 28 1019.6
20260905235215 77 109 1.7 0.0 0.00 0.00 0.00 12 1019.5
20260905234807 77 120 1.7 0.0 0.00 0.00 0.00 1 1019.5
20260905234209 78 149 2.6 0.0 0.00 0.00 0.00 100 1019.5
20260905233718 78 261 0.0 0.0 0.00 0.00 0.00 100 1019.7
20260905233211 78 255 0.0 0.0 0.00 0.00 0.00 100 1019.7
20260905232707 79 258 0.9 0.0 0.00 0.00 0.00 100 1019.6
20260905232203 79 263 2.6 0.0 0.00 0.00 0.00 100 1019.7
20260905231710 80 250 1.7 0.0 0.00 0.00 0.00 100 1019.6
20260905231202 81 258 1.7 0.0 0.00 0.00 0.00 100 1019.6
20260905230716 81 253 0.0 0.0 0.00 0.00 0.00 100 1019.7
20260905230208 81 253 1.7 0.0 0.00 0.00 0.00 100 1019.6
20260905225737 81 247 3.5 0.0 0.00 0.00 0.00 100 1019.5
20260905225231 82 253 1.7 0.0 0.00 0.00 0.00 100 1019.6
20260905224724 82 251 0.0 0.0 0.00 0.00 0.00 100 1019.7
20260905224215 82 250 0.0 0.0 0.00 0.00 0.00 100 1019.7
20260905223709 82 256 0.0 0.0 0.00 0.00 0.00 100 1019.6
20260905223227 82 244 1.7 0.0 0.00 0.00 0.00 100 1019.7
20260905222804 82 239 1.7 0.0 0.00 0.00 0.00 100 1019.6
20260905222721 82 239 1.7 0.0 0.00 0.00 0.00 100 1019.6
20260905222215 82 240 4.3 0.0 0.00 0.00 0.00 100 1019.7
20260905221712 82 239 4.3 0.0 0.00 0.00 0.00 100 1019.6
20260905221250 82 289 2.6 0.0 0.00 0.00 0.00 100 1019.5
20260905221208 82 289 2.6 0.0 0.00 0.00 0.00 100 1019.5
20260905220723 82 289 3.5 0.0 0.00 0.00 0.00 100 1019.6
20260905220211 82 290 4.3 0.0 0.00 0.00 0.00 100 1019.5
20260905215707 82 291 3.5 0.0 0.00 0.00 0.00 100 1019.7
20260905215208 82 288 1.7 0.0 0.00 0.00 0.00 100 1019.6
20260905214724 82 294 5.2 0.0 0.00 0.00 0.00 100 1019.6
20260905214220 82 291 5.2 0.0 0.00 0.00 0.00 100 1019.6
20260905213714 82 289 5.2 0.0 0.00 0.00 0.00 100 1019.5
20260905213207 82 298 3.5 0.0 0.00 0.00 0.00 100 1019.5
20260905212222 82 299 3.5 0.0 0.00 0.00 0.00 100 1019.5
20260905211724 82 294 5.2 0.0 0.00 0.00 0.00 100 1019.6
20260905211218 83 296 3.5 0.0 0.00 0.00 0.00 100 1019.6
20260905210711 83 298 6.1 0.0 0.00 0.00 0.00 100 1019.6
20260905210251 83 298 7.0 0.0 0.00 0.00 0.00 100 1019.6
20260905205721 83 306 1.7 0.0 0.00 0.00 0.00 100 1019.5
20260905205214 83 307 1.7 0.0 0.00 0.00 0.00 100 1019.5
20260905204723 83 311 3.5 0.0 0.00 0.00 0.00 100 1019.6
20260905204255 83 308 2.6 0.0 0.00 0.00 0.00 100 1019.6
20260905204209 83 308 2.6 0.0 0.00 0.00 0.00 100 1019.6
20260905203707 83 313 0.0 0.0 0.00 0.00 0.00 100 1019.6
20260905203221 83 309 1.7 0.0 0.00 0.00 0.00 100 1019.6
20260905202211 83 310 0.0 0.0 0.00 0.00 0.00 100 1019.6
20260905201220 83 317 0.0 0.0 0.00 0.00 0.00 100 1019.6
20260905200720 83 310 0.0 0.0 0.00 0.00 0.00 100 1019.6
20260905200233 83 310 0.0 0.0 0.00 0.00 0.00 100 1019.6
20260905195706 83 311 3.5 0.0 0.00 0.00 0.00 100 1019.5
20260905195216 83 310 1.7 0.0 0.00 0.00 0.00 100 1019.7
20260905194744 83 312 0.0 0.0 0.00 0.00 0.00 100 1019.5
20260905194218 83 309 0.0 0.0 0.00 0.00 0.00 100 1019.4
20260905193736 84 311 3.5 0.0 0.00 0.00 0.00 100 1019.5
20260905193221 83 312 0.0 0.0 0.00 0.00 0.00 100 1019.6
20260905192240 84 312 0.0 0.0 0.00 0.00 0.00 100 1019.5
20260905191242 84 309 1.7 0.0 0.00 0.00 0.00 100 1019.5
20260905190210 84 310 0.9 0.0 0.00 0.00 0.00 100 1019.4
20260905185243 84 315 0.0 0.0 0.00 0.00 0.00 100 1019.2
20260905184728 84 310 1.7 0.0 0.00 0.00 0.00 100 1019.3
20260905184201 84 310 1.7 0.0 0.00 0.00 0.00 100 1019.2
20260905183221 84 313 0.0 0.0 0.00 0.00 0.00 100 1019.1
20260905182708 84 314 0.9 0.0 0.00 0.00 0.00 100 1019.1
20260905182218 84 313 0.0 0.0 0.00 0.00 0.00 100 1019.2
20260905181727 84 311 0.9 0.0 0.00 0.00 0.00 100 1019.1
20260905181211 84 314 0.0 0.0 0.00 0.00 0.00 100 1019.1
20260905180708 84 314 0.9 0.0 0.00 0.00 0.00 100 1019.1
20260905180213 84 311 0.0 0.0 0.00 0.00 0.00 100 1018.9
20260905175759 84 310 0.0 0.0 0.00 0.00 0.00 100 1019.1
20260905175722 84 310 0.0 0.0 0.00 0.00 0.00 100 1019.1
20260905174740 84 312 0.0 0.0 0.00 0.00 0.00 100 1019.0
20260905174239 84 312 0.0 0.0 0.00 0.00 0.00 100 1018.9
20260905173213 84 304 1.7 0.0 0.00 0.00 0.00 100 1018.7
20260905172213 84 314 5.2 0.0 0.00 0.00 0.00 100 1018.7
20260905171720 85 318 1.7 0.0 0.00 0.00 0.00 100 1018.8
20260905171238 85 317 0.0 0.0 0.00 0.00 0.00 100 1018.9
20260905170713 85 315 0.0 0.0 0.00 0.00 0.00 100 1018.8
20260905170233 85 317 0.0 0.0 0.00 0.00 0.00 100 1018.8
20260905165725 85 317 0.0 0.0 0.00 0.00 0.00 100 1018.7
20260905164729 85 323 0.0 0.0 0.00 0.00 0.00 100 1018.7
20260905163742 85 318 1.7 0.0 0.00 0.00 0.00 100 1018.8
20260905162706 85 314 1.7 0.0 0.00 0.00 0.00 100 1018.7